GEFSSE_500_meanwind_084.txt.gz
Wind_Speed
7 7 8 8 8 9 9 10 11 12 12 13 14 14 15 16 16 17 17 18 18 18 18 18 18 18 18 17 17 17 16 16 16 16 16 16 16 16 16 15 15 15 15
7 8 8 9 9 10 10 11 12 12 13 14 14 15 16 17 17 18 18 18 18 19 19 19 18 18 18 17 17 17 16 17 16 16 16 16 16 16 16 16 16 15 15
8 8 9 9 10 10 11 11 12 13 14 15 16 16 17 17 17 18 18 18 18 18 18 18 18 18 17 17 17 16 16 17 17 16 16 16 16 16 16 16 16 16 16
8 8 9 9 10 10 11 12 13 13 14 15 16 16 16 16 17 17 17 17 17 18 17 17 17 17 17 16 16 16 16 16 16 16 16 16 16 16 16 15 15 15 16
9 9 9 10 10 11 11 12 13 14 14 15 15 15 16 16 16 16 17 17 17 17 17 17 17 17 16 16 16 16 16 16 16 16 16 16 16 16 16 16 16 16 16
10 10 11 11 11 12 12 13 13 14 14 15 15 15 16 16 16 16 17 17 17 17 17 17 17 17 17 16 16 16 16 16 17 16 16 16 16 16 16 16 17 17 17
12 12 12 12 12 13 13 13 14 14 15 15 16 16 17 17 17 17 17 17 17 17 18 18 18 18 18 18 18 18 18 18 18 18 18 18 18 18 18 18 18 18 18
12 12 13 13 14 14 14 15 15 15 16 16 17 17 18 18 19 19 19 19 19 20 20 20 20 20 20 20 20 20 20 20 20 20 20 20 20 20 20 21 21 21 21
12 13 13 14 14 15 15 16 16 17 18 18 19 19 20 20 21 21 22 22 22 22 23 23 23 23 23 23 23 23 23 23 23 24 23 24 24 24 24 24 24 24 24
14 14 14 15 16 16 17 18 18 19 19 20 21 21 22 22 23 23 24 24 25 25 26 26 26 27 27 27 27 27 27 27 27 27 27 27 28 28 28 28 28 28 29
15 15 16 17 18 18 19 19 20 21 21 22 22 22 23 24 24 25 26 26 27 27 28 28 29 30 30 30 30 31 31 31 31 31 31 32 32 32 32 32 33 33 33
16 17 18 18 19 20 20 21 21 21 22 22 23 24 24 25 26 26 27 28 28 29 29 30 31 31 32 33 33 34 34 35 35 35 36 36 36 36 37 37 37 37 38
17 18 19 20 20 21 21 21 21 22 22 23 24 24 25 25 26 27 27 28 29 30 30 31 32 32 33 34 35 35 36 37 37 38 39 39 40 40 40 41 41 41 42
18 19 20 21 21 21 22 22 22 22 22 23 23 24 24 25 26 27 28 29 29 30 31 31 32 33 33 34 35 36 36 37 38 39 40 41 41 42 43 43 44 45 45
20 19 20 21 21 22 22 22 22 22 23 24 24 25 25 26 27 27 28 29 30 31 32 32 33 34 34 34 35 36 37 38 38 39 40 41 42 43 45 46 47 47 48
21 21 21 21 21 22 22 22 23 23 24 25 26 26 27 28 29 29 30 31 31 32 32 33 34 34 35 35 36 36 37 38 39 40 41 42 43 44 45 46 47 48 49
22 22 21 21 22 22 22 23 24 24 25 26 27 28 29 30 30 31 32 33 33 33 34 34 35 35 36 36 36 37 37 38 39 40 41 42 43 44 45 46 47 48 49
23 23 22 22 23 23 24 24 25 26 27 28 29 30 31 31 32 32 33 34 34 35 35 36 36 37 37 37 38 38 38 38 39 40 41 42 43 44 45 46 47 48 49
23 23 23 23 24 25 25 25 26 27 28 29 30 31 32 32 33 33 34 35 35 36 36 36 36 36 36 37 36 37 37 38 39 40 41 41 42 43 44 46 47 48 49
24 24 24 24 25 25 26 27 28 29 30 31 31 32 32 33 33 34 35 36 36 36 36 36 36 36 36 36 36 36 37 37 39 39 40 41 42 43 44 46 48 49 50
24 24 24 25 25 26 27 28 28 30 31 32 32 32 33 33 34 34 35 36 36 36 36 36 35 36 36 37 37 36 36 37 39 39 41 43 44 46 47 49 50 52 53
25 25 25 25 26 27 27 28 29 30 31 32 33 33 34 34 35 35 36 36 36 36 36 36 37 37 39 40 40 39 39 40 42 43 45 47 49 50 52 54 55 56 58
25 25 26 26 27 27 28 29 30 31 32 33 34 34 35 35 36 36 36 37 37 37 38 39 40 40 41 43 44 45 45 45 45 46 48 50 53 55 57 59 60 62 63
25 26 26 27 28 29 30 30 31 32 33 34 35 35 36 37 38 38 38 38 39 40 41 42 43 44 44 46 48 50 52 53 53 52 51 53 55 57 59 62 64 66 67
25 26 27 28 29 30 31 32 33 34 35 36 37 38 38 39 39 40 41 41 41 42 43 44 46 47 48 49 51 53 55 57 59 61 60 58 59 61 63 65 67 69 71
26 27 28 29 30 31 33 34 35 36 37 38 39 39 40 40 41 41 42 43 44 44 46 47 48 50 51 53 55 56 58 60 62 65 66 66 65 65 66 67 69 71 73

GEFSSE_500_meanwind_090.txt.gz
Wind_Speed
9 9 9 9 9 10 10 11 11 12 12 13 13 13 14 14 15 16 16 17 17 18 19 19 20 20 20 20 21 21 21 21 21 21 21 21 20 20 20 20 20 20 20
10 10 10 10 11 11 12 12 13 14 14 14 15 15 16 16 17 17 18 18 18 19 19 20 20 21 21 22 22 22 22 22 22 22 22 22 22 22 22 22 22 22 21
11 11 11 11 12 12 13 14 15 15 15 16 16 17 17 17 18 18 18 18 19 19 19 20 20 21 22 22 23 23 23 23 23 23 23 23 23 22 22 23 23 22 22
11 12 12 12 12 13 14 15 15 16 16 16 17 17 17 17 17 17 18 18 19 19 20 20 21 21 22 22 23 23 23 23 23 23 23 23 23 23 23 23 23 23 23
11 12 12 13 13 14 15 15 16 16 16 16 17 17 17 17 17 18 18 18 19 19 20 20 20 21 21 22 22 23 23 23 23 24 24 24 24 23 23 23 23 23 23
13 13 14 14 15 15 16 16 16 16 17 17 17 17 18 18 18 19 19 19 20 20 20 20 21 21 21 22 22 23 23 23 24 24 24 24 24 24 24 23 23 23 23
14 14 15 16 16 17 17 18 18 18 18 18 18 19 19 19 19 20 20 20 21 21 22 22 22 22 23 23 24 24 24 25 25 25 25 25 25 25 25 25 25 24 24
15 16 16 17 17 18 18 19 19 19 19 19 19 20 20 20 21 21 22 22 23 23 24 24 24 25 25 25 26 26 27 27 27 27 27 27 27 27 27 27 27 26 26
14 15 16 17 17 17 18 18 18 19 19 19 20 21 21 22 22 23 24 24 25 25 26 26 26 27 27 27 28 28 29 29 29 29 30 30 30 30 30 29 29 29 29
14 15 16 16 17 17 18 18 19 19 20 21 21 22 22 23 24 24 25 25 26 26 27 27 28 28 29 29 29 30 30 31 31 31 31 32 32 32 32 32 32 32 32
15 16 17 17 18 18 19 19 20 20 21 22 22 22 23 23 24 24 25 26 26 27 27 28 29 29 30 30 31 31 32 32 32 33 33 34 34 35 35 35 35 36 36
18 18 19 19 20 20 20 21 21 22 22 22 22 22 23 23 24 24 25 25 26 27 28 29 29 30 30 31 32 32 33 33 34 34 35 36 36 37 37 38 38 39 39
20 20 21 21 22 22 22 22 22 22 22 22 22 22 23 23 24 25 26 27 28 28 29 30 31 31 31 32 33 33 34 34 35 36 37 37 38 39 39 40 41 41 42
22 22 22 23 23 23 23 23 23 22 22 22 22 23 23 24 25 26 27 28 29 30 31 31 32 32 33 33 34 35 35 35 36 37 37 38 38 39 40 41 42 42 43
23 23 24 24 24 24 24 23 23 23 23 23 23 24 24 25 26 27 28 29 30 31 32 33 33 34 34 35 36 36 37 38 38 39 39 40 40 40 41 42 42 43 44
25 25 25 25 25 25 25 24 24 24 24 24 24 25 26 27 28 29 30 31 32 33 33 34 34 35 36 36 37 37 38 39 40 40 41 41 41 42 42 42 43 43 44
26 26 26 26 26 26 26 25 25 25 25 26 26 27 27 28 30 31 32 33 34 34 35 35 36 36 37 38 38 39 39 40 41 41 41 42 42 43 43 43 43 44 44
27 27 28 28 28 27 27 27 27 27 27 27 28 29 29 30 31 32 33 34 34 35 36 36 37 37 38 38 39 40 40 40 41 41 41 42 42 43 43 43 44 44 44
28 29 29 29 29 29 28 28 28 28 28 29 29 30 31 32 33 33 34 35 35 36 36 37 37 38 39 39 39 40 40 41 41 41 41 41 42 42 43 43 44 44 45
30 30 30 30 30 30 30 29 29 30 30 30 31 31 32 33 34 35 35 36 37 37 37 38 39 39 39 39 39 40 40 40 40 41 42 42 43 44 44 45 46 46 47
31 31 31 31 31 31 31 31 31 31 31 32 32 33 34 35 35 36 37 38 38 39 39 39 40 41 41 40 39 40 40 41 42 43 44 45 46 47 47 48 49 50 51
31 31 31 32 32 32 32 33 33 33 32 33 34 35 36 37 37 38 39 39 40 41 41 41 42 42 43 43 42 41 41 42 44 45 46 47 48 50 51 52 53 54 55
32 32 32 32 32 32 33 34 34 34 34 35 36 37 38 39 40 40 41 41 42 43 43 43 43 44 44 45 45 45 45 44 45 45 47 49 50 52 53 55 56 58 59
32 32 32 32 33 33 34 34 35 35 36 37 38 39 40 41 41 42 43 43 44 45 45 45 45 46 46 47 48 49 50 50 50 48 47 50 52 53 55 57 58 60 62
32 32 33 33 33 34 34 35 36 37 37 38 39 40 41 42 43 44 45 45 46 47 47 47 47 48 48 49 50 51 52 53 54 55 53 52 53 55 57 58 60 61 63
33 33 33 33 34 35 35 36 37 38 39 40 41 42 43 44 45 46 47 47 48 48 48 49 49 49 50 51 52 53 54 55 57 59 59 58 57 57 57 58 60 62 63

GEFSSE_500_meanwind_096.txt.gz
Wind_Speed
10 10 10 10 11 11 11 11 12 12 13 14 15 16 16 17 17 18 19 19 19 19 19 19 20 20 20 20 20 20 21 21 21 22 22 22 23 23 23 23 22 22 22
10 10 11 11 11 12 12 13 14 15 15 16 17 17 18 18 19 19 19 19 19 19 19 20 20 20 20 21 21 21 21 21 21 21 22 22 22 23 23 23 23 23 23
11 11 11 12 13 13 14 15 15 16 16 17 17 18 18 18 18 18 19 19 19 19 19 19 19 20 20 20 20 20 20 20 20 20 21 21 21 22 22 23 23 23 23
11 12 12 13 14 15 15 15 16 16 17 17 17 18 18 18 19 19 19 19 18 18 19 19 19 19 18 18 18 18 19 19 19 20 20 20 21 21 22 22 22 23 23
13 13 13 14 14 15 15 15 16 17 17 18 18 19 19 19 19 19 19 19 18 18 18 18 18 19 19 19 19 19 19 19 20 20 21 21 22 22 22 22 22 22 22
12 13 14 14 15 15 16 17 18 18 19 19 19 20 20 19 19 18 18 18 18 18 19 19 20 20 20 20 20 21 21 21 21 22 22 22 23 23 23 23 23 23 23
13 14 14 15 16 17 17 18 19 19 20 20 20 20 20 19 19 19 19 20 20 20 21 21 21 22 22 22 22 23 23 23 23 24 24 24 24 25 25 25 25 25 25
14 15 16 17 18 18 19 19 20 20 20 20 20 20 20 21 21 21 21 21 21 22 22 22 23 23 23 24 24 24 25 25 26 26 26 27 27 27 28 28 28 28 28
15 16 16 16 17 18 18 19 19 20 20 20 20 21 21 21 22 22 22 22 23 23 23 23 23 24 24 25 25 26 26 27 27 28 28 29 29 29 30 30 30 30 30
14 15 15 16 17 18 19 19 20 20 20 21 21 22 22 23 23 23 23 23 23 23 23 23 24 24 25 26 26 27 27 28 28 29 30 30 31 31 32 32 33 33 33
15 16 17 18 19 19 20 20 21 21 22 22 23 23 23 23 23 23 23 23 23 23 23 24 24 25 26 27 27 28 28 29 29 30 30 31 32 32 33 33 34 35 35
16 17 18 19 20 21 21 22 22 23 23 24 24 24 24 24 24 24 24 24 24 24 24 25 25 26 27 27 28 29 29 30 31 31 32 32 33 33 34 34 35 36 37
17 18 19 20 21 22 22 23 24 24 25 25 25 25 25 25 25 24 24 25 25 25 26 26 27 27 28 28 29 30 31 31 32 32 33 33 34 35 35 36 37 37 38
19 19 20 21 22 22 23 24 24 25 26 26 26 26 26 26 26 26 25 26 26 26 27 27 28 29 29 30 31 31 32 33 33 34 34 34 35 36 37 37 38 39 40
20 21 22 23 23 24 24 25 25 26 27 27 27 27 27 27 27 27 27 27 27 28 28 29 30 30 31 31 32 33 34 34 35 35 35 35 36 37 38 39 40 41 41
22 23 23 24 25 25 25 26 26 27 28 28 28 28 28 28 28 28 28 29 29 29 30 31 31 32 32 33 34 34 35 36 36 37 37 37 38 38 39 39 40 41 42
24 24 25 25 25 26 27 27 28 29 29 29 29 29 29 29 29 29 30 30 31 31 32 32 33 33 34 34 35 36 36 37 38 38 38 39 39 40 40 40 41 41 42
26 26 26 27 27 27 28 29 29 30 30 30 30 30 30 30 30 31 31 32 32 33 33 34 35 35 36 36 37 38 38 38 39 39 40 40 41 41 41 42 42 42 43
28 28 28 28 29 29 30 30 31 31 31 31 31 31 31 32 32 33 33 33 34 34 35 36 37 37 38 38 39 39 40 40 40 41 41 42 42 42 43 43 44 44 44
30 30 30 30 30 30 31 31 32 32 32 32 32 32 32 33 33 34 34 34 35 36 37 37 38 39 39 39 40 40 41 42 42 43 43 44 44 45 45 45 46 47 47
31 31 31 31 31 31 32 32 32 33 33 33 33 33 33 34 34 35 35 36 36 37 38 39 40 40 40 41 41 41 42 43 43 44 45 46 46 47 47 48 49 49 50
32 32 32 32 32 32 32 33 33 33 33 33 34 34 34 35 35 35 36 37 38 39 40 41 41 41 42 42 42 43 43 44 45 46 47 47 48 49 50 51 52 52 53
32 32 32 33 33 33 33 33 33 33 34 34 34 34 35 36 36 37 37 38 40 41 42 42 43 43 43 44 45 45 45 44 45 46 47 49 50 51 52 53 54 55 56
33 33 33 33 33 33 33 33 33 34 34 35 35 35 36 36 37 38 39 40 41 42 43 44 44 45 45 46 47 47 47 47 46 45 46 48 50 51 53 54 55 57 58
34 33 33 33 33 33 33 33 33 34 34 35 35 36 36 37 38 39 40 41 42 43 44 46 46 47 47 47 48 48 48 48 49 49 47 48 49 51 52 54 56 57 59
34 33 33 33 33 33 33 33 34 34 34 35 36 37 37 38 39 40 41 42 43 45 46 47 47 48 48 48 49 49 49 50 50 51 50 50 50 51 52 53 55 57 58

GEFSSE_500_meanwind_102.txt.gz
Wind_Speed
9 9 9 9 9 9 9 10 10 11 12 12 13 13 14 14 15 15 16 17 17 17 17 18 18 18 18 18 18 18 18 18 18 18 18 18 18 18 18 18 19 19 19
10 10 9 9 9 10 10 11 11 12 13 13 13 14 14 15 15 15 16 17 18 18 19 19 19 19 18 18 18 18 18 18 18 18 18 18 18 18 18 18 19 19 19
10 10 10 10 11 11 12 12 12 13 13 13 14 14 15 15 16 17 18 18 18 18 18 18 18 18 18 18 18 18 18 18 18 18 18 18 18 19 19 19 19 20 20
11 11 11 12 12 12 13 13 13 13 13 14 15 15 16 17 17 18 18 18 18 18 18 18 18 19 19 19 19 20 20 20 20 19 20 20 20 20 21 21 21 21 21
11 11 12 12 12 12 12 13 13 14 15 16 17 17 17 18 18 18 19 19 19 18 19 19 19 20 21 21 22 22 22 22 22 22 22 23 23 23 23 23 23 23 23
11 11 11 11 11 12 13 15 15 16 16 16 17 17 18 18 19 19 19 19 20 20 20 21 21 22 23 23 24 24 24 25 25 25 25 25 26 26 26 26 26 26 25
11 11 11 12 13 14 15 16 16 16 17 17 18 18 19 19 19 19 20 20 21 21 22 22 23 23 24 24 25 25 26 26 26 27 27 28 28 28 28 28 29 29 28
12 12 13 14 15 16 17 17 17 17 18 18 18 19 19 19 19 20 21 21 22 23 23 24 24 25 25 25 26 26 26 27 27 28 28 29 29 30 30 30 31 31 31
13 14 15 15 16 16 16 16 17 17 18 18 19 19 20 20 21 21 22 23 23 23 24 24 25 25 26 26 27 27 27 27 28 28 29 30 30 30 31 31 32 32 33
14 15 15 15 15 16 17 17 18 18 19 19 20 20 21 21 22 23 23 24 24 24 25 25 26 26 26 27 27 28 28 29 29 29 30 31 31 31 32 32 33 33 34
14 15 15 16 16 17 18 18 19 20 20 21 21 22 22 23 24 24 25 25 25 26 26 27 27 27 27 28 28 29 29 30 30 30 31 32 32 32 33 33 34 34 35
15 16 16 17 18 18 19 20 21 21 22 22 23 23 23 24 25 25 26 26 27 27 28 28 28 29 29 29 29 30 30 31 31 30 31 33 33 33 34 34 35 35 36
17 18 18 18 19 20 21 21 22 23 23 23 24 24 25 25 26 26 27 27 28 28 29 29 30 30 30 30 31 31 32 32 32 32 32 34 34 35 35 36 36 37 37
19 20 20 21 21 22 22 22 23 24 25 25 25 26 27 27 27 28 28 28 29 30 30 31 31 31 32 32 32 33 33 33 34 34 34 35 36 37 37 37 38 38 39
21 22 22 23 24 24 24 24 25 25 26 27 27 28 28 29 29 29 29 30 30 31 31 32 32 33 33 34 34 34 34 34 35 36 36 36 37 38 38 38 39 39 40
23 23 24 25 25 26 27 27 27 27 27 28 29 29 29 30 31 31 31 31 32 32 33 33 34 34 35 35 35 35 36 37 37 37 37 37 38 38 38 39 39 40 40
25 26 26 27 28 28 29 29 29 29 29 29 30 30 31 32 32 32 32 33 33 34 34 35 35 36 36 36 37 37 38 38 38 39 39 39 38 39 39 40 40 41 42
28 28 29 30 30 30 31 31 30 31 31 31 31 32 32 33 33 33 34 34 35 35 36 36 36 37 37 38 38 39 39 40 40 40 40 40 39 39 40 41 41 42 42
31 31 32 32 33 32 32 32 33 33 33 32 32 33 34 34 34 34 35 36 36 36 37 37 37 38 39 39 39 40 40 41 41 41 41 41 41 41 41 42 42 43 43
34 34 34 34 35 34 34 34 34 34 34 34 34 34 34 34 35 35 36 36 37 37 38 38 39 39 40 40 40 41 42 42 43 43 43 43 43 43 43 43 43 44 44
36 36 36 36 36 36 35 35 35 35 35 35 35 35 35 35 36 36 36 37 37 38 39 39 40 40 41 41 41 42 43 43 44 44 44 44 44 44 44 45 45 45 46
37 37 37 37 37 37 36 36 36 36 36 36 36 36 36 36 36 36 37 37 38 39 40 40 41 41 42 42 43 43 43 43 44 44 45 45 45 45 46 46 46 47 47
37 37 38 37 37 37 37 37 37 37 37 37 36 36 36 36 36 37 37 38 39 40 40 41 41 42 43 44 45 45 44 44 44 44 45 45 45 46 46 47 47 47 47
38 38 38 37 37 37 38 38 38 38 37 37 37 37 37 36 37 37 38 39 40 40 41 41 43 43 44 45 46 46 46 46 45 44 44 45 45 45 46 47 48 48 49
37 37 38 38 37 38 38 38 38 37 37 37 36 36 36 37 37 38 39 39 40 40 41 42 43 44 45 46 47 47 47 47 47 46 44 44 45 46 46 47 48 49 50
37 37 37 38 38 38 38 38 37 37 37 36 36 36 37 37 37 39 39 39 40 41 42 43 45 46 47 48 48 48 48 47 47 47 46 45 45 45 47 47 48 49 50

GEFSSE_500_meanwind_108.txt.gz
Wind_Speed
9 9 8 7 7 6 6 6 7 7 8 9 10 11 11 12 13 13 14 14 15 16 16 17 18 18 18 19 19 19 19 20 20 21 21 21 21 21 22 22 22 22 23
10 9 9 8 7 7 7 7 8 8 9 10 11 11 12 13 13 14 15 16 16 17 17 18 18 19 19 19 19 19 20 20 21 21 21 21 21 21 22 22 22 23 23
11 10 10 9 8 8 8 8 9 9 10 11 11 12 13 14 15 16 16 17 17 18 18 19 19 19 19 19 19 20 20 21 21 22 22 22 22 23 23 23 24 24 24
11 11 10 10 9 9 9 9 10 10 11 12 13 14 15 16 16 17 17 17 18 19 19 19 19 20 20 20 21 21 22 23 23 24 24 24 24 25 25 26 26 26 26
11 10 10 9 9 9 9 9 10 11 12 14 14 15 16 16 17 17 18 19 19 19 20 20 20 21 21 22 22 23 23 24 24 25 25 26 26 26 27 27 28 28 28
11 10 10 9 9 9 9 10 11 12 14 14 15 15 16 17 18 18 19 20 20 20 21 21 22 22 22 23 23 24 24 25 25 26 26 26 27 27 28 28 29 29 30
11 10 10 9 9 10 10 12 13 14 14 15 16 16 17 18 19 19 20 20 20 21 22 22 23 23 24 24 24 25 26 26 27 27 27 27 28 28 29 29 30 30 31
11 10 10 10 11 11 13 14 14 14 15 15 16 17 18 19 19 20 20 20 21 22 23 23 24 24 25 25 26 26 27 27 28 28 28 28 29 30 30 31 31 31 32
11 11 11 11 12 12 13 13 13 14 15 16 17 18 19 19 20 21 21 22 23 24 24 25 25 26 26 27 27 27 28 28 29 29 30 30 30 31 31 32 32 32 33
12 12 12 12 12 12 12 13 14 15 16 17 18 19 20 21 22 22 23 23 24 25 25 26 26 27 27 28 28 29 29 29 30 31 31 32 32 32 32 32 33 33 34
12 12 12 12 12 13 13 14 16 17 18 18 19 20 22 22 23 24 24 25 25 26 26 27 27 28 29 29 29 30 30 31 31 32 33 33 34 34 34 34 34 35 35
13 13 13 13 14 14 15 16 17 19 19 20 21 22 23 24 25 25 26 26 27 27 28 28 28 29 30 30 30 31 31 32 33 33 34 35 35 35 35 35 36 37 37
14 14 14 15 15 16 17 18 18 20 21 21 22 23 24 25 26 27 27 28 28 28 29 29 30 30 31 31 32 32 33 34 34 34 35 35 36 36 36 37 37 38 38
15 15 15 16 17 18 18 19 20 21 22 23 24 25 26 27 28 29 29 29 30 30 30 31 31 32 32 33 33 34 34 34 35 35 36 36 37 38 38 38 39 39 40
16 16 16 17 18 19 20 21 22 23 24 25 26 27 27 28 29 30 30 31 31 32 32 32 33 33 34 34 35 35 35 35 36 36 37 38 38 39 39 39 40 40 41
17 17 17 18 20 21 22 23 24 25 26 27 28 29 29 30 31 31 32 32 32 33 34 34 34 34 35 36 36 36 36 37 37 37 38 39 39 40 40 41 41 42 42
20 20 20 20 21 23 24 25 26 27 28 29 30 30 31 32 32 33 33 33 34 35 35 35 35 36 36 37 37 37 37 38 39 39 39 39 40 41 41 42 43 43 43
23 23 23 23 24 25 26 26 27 29 30 31 31 32 32 33 34 34 34 35 36 36 36 36 36 36 37 37 38 38 38 39 40 40 40 41 41 42 42 43 43 44 44
25 26 26 27 27 28 29 29 30 31 32 33 33 33 34 34 35 35 36 36 37 37 37 37 37 37 38 38 38 39 39 40 41 41 41 41 42 43 43 43 44 44 44
27 28 28 29 30 31 31 32 32 33 34 34 35 35 35 36 36 36 37 37 37 38 38 38 38 38 39 39 39 39 40 41 41 41 42 42 42 43 43 43 44 44 44
30 31 31 32 32 33 33 34 34 35 35 35 35 36 37 37 37 38 38 38 38 38 38 39 39 39 39 39 39 40 40 41 42 42 43 43 43 43 44 44 44 44 44
33 32 33 33 33 33 34 35 35 35 35 35 36 37 38 38 38 38 38 38 38 39 39 39 39 39 39 39 40 40 40 41 42 42 43 44 44 45 45 45 45 44 44
33 33 33 34 34 35 35 35 36 36 36 36 37 38 38 38 38 38 38 38 39 39 39 39 39 39 40 40 40 40 41 41 41 42 43 44 45 45 45 45 45 45 45
34 34 35 35 35 35 35 36 36 36 37 37 38 38 38 38 38 38 38 38 38 39 39 40 40 40 40 40 40 41 42 42 43 43 43 44 44 44 45 45 45 45 45
34 34 35 35 35 35 35 36 37 37 37 37 37 37 37 37 38 38 38 38 38 39 39 39 40 40 40 41 41 42 43 44 44 44 44 44 44 45 45 45 45 45 45
34 34 34 35 35 35 35 36 36 37 37 36 36 37 37 37 38 38 38 38 38 38 39 39 40 41 41 42 43 43 44 45 45 45 45 44 44 44 45 46 46 46 46